Regional Weather Roundup
Issued by NWS

Home | Current Version | Previous Version | Text Only | Print | Product List | Glossary On
Versions: 1 2 3 4 5 6 7 8 9 10 11 12 13 14 15 16 17 18 19 20 21 22 23 24 25 26 27 28 29 30 31 32 33 34 35 36 37 38 39 40 41 42 43 44 45 46 47 48 49 50
199
ASUS45 KPSR 030710
RWRAZ

ARIZONA HOURLY REGIONAL WEATHER ROUNDUP
NATIONAL WEATHER SERVICE PHOENIX AZ
1200 AM MST SAT DEC 03 2016

NOTE: FAIR INDICATES FEW OR NO CLOUDS BELOW 12,000 FEET WITH NO
SIGNIFICANT WEATHER AND/OR OBSTRUCTIONS TO VISIBILITY.

AZZ001>003-036-030800-
NORTHWEST ARIZONA

CITY           SKY/WX    TMP DP  RH WIND       PRES   REMARKS
BULLHEAD CITY  CLEAR     52  18  25 N26G33    30.13R
KINGMAN        CLEAR     37  11  34 NE15      30.12S WCI  28
$$

AZZ004>008-015-016-018-030800-
NORTH CENTRAL ARIZONA

CITY           SKY/WX    TMP DP  RH WIND       PRES   REMARKS
GRAND CANYON   CLEAR    N/A N/A N/A NE14G21   30.10S
PRESCOTT       CLEAR     29  22  75 NW9       30.04R WCI  20
FLAGSTAFF      CLEAR     26  16  65 E15       30.04F WCI  14
PAYSON         CLEAR     36  18  48 N17       30.00S WCI  25
PAGE           CLEAR     34  11  38 SW5       30.16S WCI  30
$$

AZZ009>014-017-030800-
NORTHEAST ARIZONA

CITY           SKY/WX    TMP DP  RH WIND       PRES   REMARKS
WINSLOW        CLEAR     29  18  63 NW12      30.09S WCI  19
SAINT JOHNS    PTCLDY    28  20  71 CALM      30.01F
WINDOW ROCK    CLEAR     25  17  72 CALM      30.09R
SHOW LOW       CLEAR     23  16  74 CALM      30.03S
$$

AZZ023-030800-
GREATER PHOENIX AREA

CITY           SKY/WX    TMP DP  RH WIND       PRES   REMARKS
PHOENIX        NOT AVBL
LUKE AFB       CLEAR     46  32  56 NW6       29.90F
DEER VALLEY    CLEAR     52  24  33 N16       29.90S
SCOTTSDALE     CLEAR     48  28  46 W5        29.91S
MESA-GATEWAY   CLEAR     46  28  49 NW5       29.90S
$$

AZZ027-028-030800-
SOUTHWEST MARICOPA COUNTY AND PINAL COUNTY

CITY           SKY/WX    TMP DP  RH WIND       PRES   REMARKS
CASA GRANDE    NOT AVBL
$$

AZZ503-504-507>509-030800-
SOUTHEAST ARIZONA

CITY           SKY/WX    TMP DP  RH WIND       PRES   REMARKS
TUCSON         CLOUDY    50  21  32 S5        29.92F
DAVIS-MONTHAN  MOCLDY    48  24  39 S7        29.90F
NOGALES        LGT RAIN  41  33  73 N14G23    29.88F
SIERRA VISTA   CLOUDY    36  33  89 W2        29.93F
DOUGLAS        CLOUDY    40  38  93 N7        29.91S
SAFFORD        CLOUDY    46  21  37 CALM      29.89S
$$

AZZ020-021-025-026-031-030800-
SOUTHWEST ARIZONA

CITY           SKY/WX    TMP DP  RH WIND       PRES   REMARKS
YUMA           CLEAR     57  18  21 N15G22    29.98S
$$

CAZ031-033-041-043-047-048-061-030800-
SOUTHERN CALIFORNIA

CITY           SKY/WX    TMP DP  RH WIND       PRES   REMARKS
DOWNTOWN L.A.  CLEAR     49  19  30 VRB3      30.07S
L.A. AIRPORT   CLEAR     57  13  17 CALM      30.08S
SAN DIEGO      CLEAR     53  19  26 NW7       30.06R
BURBANK        CLEAR     58   3  11 NE16G25   30.08S
ONTARIO        CLEAR     55   7  14 NE40G63   30.04R
RIVERSIDE      CLEAR     55  11  17 NE18G43   30.08R
PALM SPRINGS   CLEAR     57   9  14 NW9       30.15S
EL CENTRO NAS  CLEAR     56  23  27 N24       30.06F
IMPERIAL       CLEAR     56  26  31 N17       30.03F
BLYTHE         PTCLDY    56  16  20 N23G32    30.03S
NEEDLES        CLEAR     53  16  23 N25G32    30.11F
$$

NVZ020-UTZ003-030800-
SOUTHERN NEVADA-UTAH

CITY           SKY/WX    TMP DP  RH WIND       PRES   REMARKS
LAS VEGAS      CLEAR     46   9  22 N13       30.23R
SALT LAKE CITY CLOUDY    28  18  66 SE6       30.29S WCI  22
$$

NMZ009-TXZ055-030800-
NEW MEXICO-WEST TEXAS

CITY           SKY/WX    TMP DP  RH WIND       PRES   REMARKS
ALBUQUERQUE    CLOUDY    35  25  66 E24G37    30.09R WCI  23
EL PASO        NOT AVBL
$$


........................KEY........................
SKY/WX - SKY CONDITION/WEATHER
TMP    - TEMPERATURE IN FAHRENHEIT
DP     - DEW POINT IN FAHRENHEIT
RH     - RELATIVE HUMIDITY IN PERCENT
WIND   - DIRECTION AND SPEED IN MILES PER HOUR (MPH)
VRB    - VARIABLE WIND DIRECTION
PRES   - MEAN SEA LEVEL PRESSURE IN INCHES OF MERCURY
         F - FALLING PRESSURE   R - RISING PRESSURE
         S - STEADY PRESSURE
VSB    - VISIBILITY IN MILES
HX     - HEAT INDEX IN FAHRENHEIT
WCI    - WIND CHILL INDEX IN FAHRENHEIT
TC     - TEMPERATURE IN CELSIUS WHICH IS ALSO KNOWN AS
         TEMPERATURE IN CENTIGRADE
AFB    - AIR FORCE BASE
         LUKE AFB IS LUKE AIR FORCE BASE
         DAVIS-MONTHAN IS DAVIS-MONTHAN AIR FORCE BASE
NAS    - NAVAL AIR STATION
         EL CENTRO NAS IS EL CENTRO NAVAL AIR STATION
N/A    - NOT AVAILABLE





USA.gov is the U.S. government's official web portal to all federal, state and local government web resources and services.